Preview of NWS' New Version of Forecast
This preview is not operational and should not be used for support decisions.

Regional Weather Roundup (RWR)

Issued by National Weather Service (NWS)

                            
000
ASUS45 KCYS 181210
RWRWY 

WYOMING REGIONAL WEATHER ROUNDUP
NATIONAL WEATHER SERVICE CHEYENNE WY
600 AM MDT SAT MAY 18 2019

NOTE:  "FAIR" INDICATES FEW OR NO CLOUDS BELOW 12,000 FEET
WITH NO SIGNIFICANT WEATHER AND/OR OBSTRUCTIONS TO VISIBILITY.

WYZ001-181300-
YELLOWSTONE NATIONAL PARK
  
CITY           SKY/WX    TMP DP  RH WIND       PRES   REMARKS
LK YELLOWSTONE NOT AVBL                                               
W YELLOWSTONE  NOT AVBL                                               

$$
WYZ002>013-054>058-071-098>099-181300-
NORTHERN WYOMING
  
CITY           SKY/WX    TMP DP  RH WIND       PRES   REMARKS
JACKSON        CLOUDY    37  32  82 S7        29.84R WCI  32          
CODY           LGT RAIN  36  34  92 N8        29.81R WCI  30          
GREYBULL       LGT RAIN  41  40  96 NW17      29.76R                  
6HR MIN TEMP:  41; 6HR MAX TEMP:  46; 6HR PCP:  0.22;                

WORLAND        LGT RAIN  41  39  93 N12       29.77R                  
6HR MIN TEMP:  41; 6HR MAX TEMP:  45; 6HR PCP:  0.38;                

SHERIDAN       LGT RAIN  38  36  92 N13       29.79R WCI  30          
6HR MIN TEMP:  39; 6HR MAX TEMP:  44; 6HR PCP:  0.13;                

BUFFALO        LGT RAIN  38  37  97 N15       29.74R FOG     WCI  29  
6HR MIN TEMP:  38; 6HR MAX TEMP:  42; 6HR PCP:  0.30;                

GILLETTE       LGT SNOW  33  33 100 N8        29.73R FOG     WCI  26  
6HR MIN TEMP:  33; 6HR MAX TEMP:  41; 6HR PCP:  0.13;                

HULETT         SNOW      32  32 100 N6        29.72  VSB 1/2 WCI  26  
NEWCASTLE      LGT RAIN  37  37 100 NW10      29.67  WCI  30          

$$
WYZ014>020-022>026-101>103-181300-
CENTRAL WYOMING
  
CITY           SKY/WX    TMP DP  RH WIND       PRES   REMARKS
BIG PINEY      CLOUDY    31  26  82 NW5       29.85R WCI  26          
6HR MIN TEMP:  28; 6HR MAX TEMP:  34;                                

PINEDALE       CLOUDY    32  28  86 W3        29.84                   
DUBOIS         PTSUNNY   34  25  69 W15       29.79  WCI  24          
LANDER         FAIR      36  30  79 CALM      29.73R                  
6HR MIN TEMP:  34; 6HR MAX TEMP:  44;                                

RIVERTON       FAIR      40  36  86 NE5       29.74S                  
6HR MIN TEMP:  40; 6HR MAX TEMP:  45;                                

CASPER         LGT RAIN  43  43 100 N5        29.72R                  
6HR MIN TEMP:  42; 6HR MAX TEMP:  47; 6HR PCP:  0.18;                

DOUGLAS        LGT RAIN  44  42  93 NW10      29.70R                  
6HR MIN TEMP:  44; 6HR MAX TEMP:  48; 6HR PCP:  0.01;                


$$
WYZ021-027>030-104>119-181300-
SOUTHERN WYOMING
  
CITY           SKY/WX    TMP DP  RH WIND       PRES   REMARKS
EVANSTON       SNOW      32  30  92 SW13      29.88  VSB 1/2 WCI  22  
6HR MIN TEMP:  32; 6HR MAX TEMP:  33; 6HR PCP:  0.01;                

KEMMERER       PTSUNNY   32  30  93 W8        29.87  WCI  25          
ROCK SPRINGS   MOCLDY    32  28  85 W16       29.85R WCI  21          
6HR MIN TEMP:  31; 6HR MAX TEMP:  35;                                

DIXON          FAIR      32  31  96 S9        29.88R WCI  25          
RAWLINS        FAIR      33  27  78 SW17      29.80R WCI  22          
6HR MIN TEMP:  33; 6HR MAX TEMP:  41;                                

SARATOGA       FAIR      32  28  86 SW14      29.83R WCI  22          
LARAMIE        FAIR      34  25  69 W16       29.74R WCI  24          
6HR MIN TEMP:  30; 6HR MAX TEMP:  37;                                

CHEYENNE       FAIR      40  30  67 W16       29.69R WCI  31          
6HR MIN TEMP:  40; 6HR MAX TEMP:  44;                                

TORRINGTON     FAIR      46  43  89 NW9       29.65R                  
6HR MIN TEMP:  46; 6HR MAX TEMP:  51; 6HR PCP: TRACE;                

PINE BLUFFS    FAIR      34  32  93 S5        29.70R WCI  30          

$$